Time,TemperatureF,DewpointF,PressureIn,WindDirection,WindDirectionDegrees,WindSpeedMPH,WindSpeedGustMPH,Humidity,HourlyPrecipIn,Conditions,Clouds,dailyrainin,SoftwareType,DateUTC
2013-05-05 00:02:00,42.2,40.0,30.13,WNW,294,7.4,7.4,92,0.00,RA,SKC,0.00,WeatherDisplay:10.37,2013-05-05 05:02:00,
2013-05-05 00:07:00,42.2,40.0,30.13,WNW,297,11.7,11.7,92,0.00,RA,SKC,0.00,WeatherDisplay:10.37,2013-05-05 05:07:00,
2013-05-05 00:12:00,42.2,40.0,30.12,SW,220,10.6,10.6,92,0.00,CLR,SKC,0.00,WeatherDisplay:10.37,2013-05-05 05:12:00,
2013-05-05 00:17:00,42.2,40.0,30.12,SW,232,11.7,11.7,92,0.00,CLR,SKC,0.00,WeatherDisplay:10.37,2013-05-05 05:17:00,
2013-05-05 00:22:00,42.1,39.9,30.12,West,269,12.7,12.7,92,0.00,CLR,SKC,0.00,WeatherDisplay:10.37,2013-05-05 05:22:00,
2013-05-05 00:27:00,42.1,39.9,30.12,SW,234,13.8,13.8,92,0.00,CLR,SKC,0.00,WeatherDisplay:10.37,2013-05-05 05:27:00,
2013-05-05 00:32:00,42.1,39.9,30.12,WSW,247,9.5,9.5,92,0.00,CLR,SKC,0.00,WeatherDisplay:10.37,2013-05-05 05:32:00,
2013-05-05 00:37:00,42.1,39.9,30.12,West,260,10.6,10.6,92,0.00,CLR,SKC,0.00,WeatherDisplay:10.37,2013-05-05 05:37:00,
2013-05-05 00:42:00,42.2,40.0,30.12,WSW,239,8.5,8.5,92,0.00,CLR,SKC,0.00,WeatherDisplay:10.37,2013-05-05 05:42:00,
2013-05-05 00:47:00,42.2,40.0,30.11,WSW,238,11.7,11.7,92,0.00,CLR,SKC,0.00,WeatherDisplay:10.37,2013-05-05 05:47:00,
2013-05-05 00:52:00,42.2,40.0,30.11,WSW,241,9.5,9.5,92,0.00,CLR,SKC,0.00,WeatherDisplay:10.37,2013-05-05 05:52:00,
2013-05-05 00:57:00,42.2,40.0,30.11,SW,235,10.6,10.6,92,0.00,CLR,SKC,0.00,WeatherDisplay:10.37,2013-05-05 05:57:00,
2013-05-05 01:02:00,42.2,39.8,30.11,SW,230,11.7,11.7,91,0.00,CLR,SKC,0.00,WeatherDisplay:10.37,2013-05-05 06:02:00,
2013-05-05 01:07:00,42.2,40.0,30.11,WSW,241,9.5,9.5,92,0.00,CLR,SKC,0.00,WeatherDisplay:10.37,2013-05-05 06:07:00,
2013-05-05 01:12:00,42.2,40.0,30.12,SW,225,9.5,9.5,92,0.00,CLR,SKC,0.00,WeatherDisplay:10.37,2013-05-05 06:12:00,
2013-05-05 01:17:00,42.2,39.8,30.12,SW,233,10.6,10.6,91,0.00,CLR,SKC,0.00,WeatherDisplay:10.37,2013-05-05 06:17:00,
2013-05-05 01:22:00,42.2,39.8,30.12,SSW,213,11.7,11.7,91,0.00,CLR,SKC,0.00,WeatherDisplay:10.37,2013-05-05 06:22:00,
2013-05-05 01:27:00,42.2,39.8,30.12,West,259,11.5,11.5,91,0.00,CLR,SKC,0.00,WeatherDisplay:10.37,2013-05-05 06:27:00,
2013-05-05 01:32:00,42.2,39.8,30.11,SW,217,12.7,12.7,91,0.00,CLR,SKC,0.00,WeatherDisplay:10.37,2013-05-05 06:32:00,
2013-05-05 01:37:00,42.3,39.9,30.11,WSW,253,6.9,6.9,91,0.00,CLR,SKC,0.00,WeatherDisplay:10.37,2013-05-05 06:37:00,
2013-05-05 01:42:00,42.3,39.9,30.12,WSW,239,7.4,7.4,91,0.00,CLR,SKC,0.00,WeatherDisplay:10.37,2013-05-05 06:42:00,
2013-05-05 01:47:00,42.3,39.9,30.12,WSW,253,8.5,8.5,91,0.00,CLR,SKC,0.00,WeatherDisplay:10.37,2013-05-05 06:47:00,
2013-05-05 01:52:00,42.3,39.9,30.12,WSW,258,11.7,11.7,91,0.00,CLR,SKC,0.00,WeatherDisplay:10.37,2013-05-05 06:52:00,
2013-05-05 01:57:00,42.2,39.8,30.12,West,272,6.9,6.9,91,0.00,CLR,SKC,0.00,WeatherDisplay:10.37,2013-05-05 06:57:00,
2013-05-05 02:02:00,42.2,39.8,30.12,SW,234,9.5,9.5,91,0.00,CLR,SKC,0.00,WeatherDisplay:10.37,2013-05-05 07:02:00,
2013-05-05 02:07:00,42.2,39.8,30.12,West,261,9.5,9.5,91,0.00,CLR,SKC,0.00,WeatherDisplay:10.37,2013-05-05 07:07:00,
2013-05-05 02:12:00,42.2,39.8,30.12,WSW,253,11.5,11.5,91,0.00,CLR,SKC,0.00,WeatherDisplay:10.37,2013-05-05 07:12:00,
2013-05-05 02:17:00,42.1,39.7,30.11,WNW,285,9.2,9.2,91,0.00,CLR,SKC,0.00,WeatherDisplay:10.37,2013-05-05 07:17:00,
2013-05-05 02:22:00,42.1,39.7,30.11,WSW,237,6.9,6.9,91,0.00,CLR,SKC,0.00,WeatherDisplay:10.37,2013-05-05 07:22:00,
2013-05-05 02:27:00,42.1,39.7,30.11,SW,227,6.9,6.9,91,0.00,CLR,SKC,0.00,WeatherDisplay:10.37,2013-05-05 07:27:00,
2013-05-05 02:32:00,42.1,39.7,30.11,WSW,247,6.9,6.9,91,0.00,CLR,SKC,0.00,WeatherDisplay:10.37,2013-05-05 07:32:00,
2013-05-05 02:37:00,42.1,39.7,30.12,West,280,6.4,6.4,91,0.00,CLR,SKC,0.00,WeatherDisplay:10.37,2013-05-05 07:37:00,
2013-05-05 02:42:00,42.1,39.7,30.11,WSW,250,7.4,7.4,91,0.00,CLR,SKC,0.00,WeatherDisplay:10.37,2013-05-05 07:42:00,
2013-05-05 02:47:00,42.1,39.7,30.11,WSW,238,6.9,6.9,91,0.00,CLR,SKC,0.00,WeatherDisplay:10.37,2013-05-05 07:47:00,
2013-05-05 02:52:00,42.1,39.7,30.11,SW,223,7.4,7.4,91,0.00,CLR,SKC,0.00,WeatherDisplay:10.37,2013-05-05 07:52:00,
2013-05-05 02:57:00,42.1,39.7,30.11,SW,225,10.4,10.4,91,0.00,CLR,SKC,0.00,WeatherDisplay:10.37,2013-05-05 07:57:00,
2013-05-05 03:02:00,42.0,39.8,30.11,SW,231,6.9,6.9,92,0.00,CLR,SKC,0.00,WeatherDisplay:10.37,2013-05-05 08:02:00,
2013-05-05 03:07:00,41.9,39.7,30.11,SW,223,11.5,11.5,92,0.00,CLR,SKC,0.00,WeatherDisplay:10.37,2013-05-05 08:07:00,
2013-05-05 03:12:00,41.8,39.6,30.11,SW,223,11.7,11.7,92,0.00,CLR,SKC,0.00,WeatherDisplay:10.37,2013-05-05 08:12:00,
2013-05-05 03:17:00,41.8,39.9,30.10,SW,235,10.4,10.4,93,0.00,CLR,SKC,0.00,WeatherDisplay:10.37,2013-05-05 08:17:00,
2013-05-05 03:22:00,41.8,39.9,30.10,WSW,243,10.6,10.6,93,0.00,CLR,SKC,0.00,WeatherDisplay:10.37,2013-05-05 08:22:00,
2013-05-05 03:27:00,41.7,39.8,30.10,SSW,209,11.7,11.7,93,0.00,CLR,SKC,0.00,WeatherDisplay:10.37,2013-05-05 08:27:00,
2013-05-05 03:32:00,41.7,39.8,30.10,SW,226,9.5,9.5,93,0.00,CLR,SKC,0.00,WeatherDisplay:10.37,2013-05-05 08:32:00,
2013-05-05 03:37:00,41.7,39.8,30.10,WSW,248,10.6,10.6,93,0.00,CLR,SKC,0.00,WeatherDisplay:10.37,2013-05-05 08:37:00,
2013-05-05 03:42:00,41.7,39.8,30.10,SW,236,10.6,10.6,93,0.00,CLR,SKC,0.00,WeatherDisplay:10.37,2013-05-05 08:42:00,
2013-05-05 03:47:00,41.7,39.8,30.10,SW,232,10.4,10.4,93,0.00,CLR,SKC,0.00,WeatherDisplay:10.37,2013-05-05 08:47:00,
2013-05-05 03:52:00,41.8,39.9,30.10,SW,231,13.8,13.8,93,0.00,CLR,SKC,0.00,WeatherDisplay:10.37,2013-05-05 08:52:00,
2013-05-05 03:57:00,41.9,40.0,30.10,SW,219,9.5,9.5,93,0.00,CLR,SKC,0.00,WeatherDisplay:10.37,2013-05-05 08:57:00,
2013-05-05 04:02:00,41.9,40.0,30.11,WSW,248,11.7,11.7,93,0.00,CLR,SKC,0.00,WeatherDisplay:10.37,2013-05-05 09:02:00,
2013-05-05 04:07:00,41.9,40.0,30.11,West,274,11.7,11.7,93,0.00,CLR,SKC,0.00,WeatherDisplay:10.37,2013-05-05 09:07:00,
2013-05-05 04:12:00,41.9,39.7,30.10,WSW,246,11.7,11.7,92,0.00,CLR,SKC,0.00,WeatherDisplay:10.37,2013-05-05 09:12:00,
2013-05-05 04:17:00,41.9,40.0,30.10,WSW,248,10.4,10.4,93,0.00,CLR,SKC,0.00,WeatherDisplay:10.37,2013-05-05 09:17:00,
2013-05-05 04:22:00,41.9,40.0,30.11,West,272,11.5,11.5,93,0.00,CLR,SKC,0.00,WeatherDisplay:10.37,2013-05-05 09:22:00,
2013-05-05 04:27:00,41.9,40.0,30.11,SW,234,12.7,12.7,93,0.00,CLR,SKC,0.00,WeatherDisplay:10.37,2013-05-05 09:27:00,
2013-05-05 04:32:00,41.9,39.7,30.11,WSW,252,12.7,12.7,92,0.00,CLR,SKC,0.00,WeatherDisplay:10.37,2013-05-05 09:32:00,
2013-05-05 04:38:00,41.9,40.0,30.11,SSW,208,8.1,8.1,93,0.00,CLR,SKC,0.00,WeatherDisplay:10.37,2013-05-05 09:38:00,
2013-05-05 04:43:00,41.9,40.0,30.11,SW,225,12.7,12.7,93,0.00,CLR,SKC,0.00,WeatherDisplay:10.37,2013-05-05 09:43:00,
2013-05-05 04:48:00,41.8,39.9,30.11,WSW,249,8.5,8.5,93,0.00,CLR,SKC,0.00,WeatherDisplay:10.37,2013-05-05 09:48:00,
2013-05-05 04:53:00,41.8,39.9,30.11,WSW,257,8.1,8.1,93,0.00,CLR,SKC,0.00,WeatherDisplay:10.37,2013-05-05 09:53:00,
2013-05-05 04:58:00,41.8,39.9,30.11,WSW,246,9.2,9.2,93,0.00,CLR,SKC,0.00,WeatherDisplay:10.37,2013-05-05 09:58:00,
2013-05-05 05:03:00,41.8,39.9,30.11,West,277,6.9,6.9,93,0.00,CLR,SKC,0.00,WeatherDisplay:10.37,2013-05-05 10:03:00,
2013-05-05 05:08:00,41.8,39.9,30.11,SW,236,8.5,8.5,93,0.00,CLR,SKC,0.00,WeatherDisplay:10.37,2013-05-05 10:08:00,
2013-05-05 05:13:00,41.8,39.9,30.11,WSW,243,8.5,8.5,93,0.00,CLR,SKC,0.00,WeatherDisplay:10.37,2013-05-05 10:13:00,
2013-05-05 05:18:00,41.8,39.9,30.11,WSW,244,9.5,9.5,93,0.00,CLR,SKC,0.00,WeatherDisplay:10.37,2013-05-05 10:18:00,
2013-05-05 05:23:00,41.8,39.9,30.11,WSW,255,11.7,11.7,93,0.00,CLR,SKC,0.00,WeatherDisplay:10.37,2013-05-05 10:23:00,
2013-05-05 05:28:00,41.7,39.8,30.11,WSW,255,10.6,10.6,93,0.00,CLR,SKC,0.00,WeatherDisplay:10.37,2013-05-05 10:28:00,
2013-05-05 05:33:00,41.7,39.8,30.11,WNW,283,10.6,10.6,93,0.00,CLR,SKC,0.00,WeatherDisplay:10.37,2013-05-05 10:33:00,
2013-05-05 05:38:00,41.7,39.8,30.12,SW,234,9.2,9.2,93,0.00,CLR,SKC,0.00,WeatherDisplay:10.37,2013-05-05 10:38:00,
2013-05-05 05:43:00,41.7,39.8,30.12,WSW,257,9.5,9.5,93,0.00,CLR,SKC,0.00,WeatherDisplay:10.37,2013-05-05 10:43:00,
2013-05-05 05:48:00,41.7,39.8,30.12,SW,235,6.9,6.9,93,0.00,CLR,SKC,0.00,WeatherDisplay:10.37,2013-05-05 10:48:00,
2013-05-05 05:53:00,41.7,39.8,30.12,WSW,258,13.8,13.8,93,0.00,CLR,SKC,0.00,WeatherDisplay:10.37,2013-05-05 10:53:00,
2013-05-05 05:58:00,41.6,39.7,30.12,WSW,249,9.2,9.2,93,0.00,CLR,SKC,0.00,WeatherDisplay:10.37,2013-05-05 10:58:00,
2013-05-05 06:03:00,41.5,39.6,30.12,West,268,12.7,12.7,93,0.00,CLR,SKC,0.00,WeatherDisplay:10.37,2013-05-05 11:03:00,
2013-05-05 06:08:00,41.5,39.6,30.12,WSW,256,13.8,13.8,93,0.00,CLR,SKC,0.00,WeatherDisplay:10.37,2013-05-05 11:08:00,
2013-05-05 06:13:00,41.5,39.9,30.12,SW,221,10.6,10.6,94,0.00,CLR,SKC,0.00,WeatherDisplay:10.37,2013-05-05 11:13:00,
2013-05-05 06:18:00,41.4,39.8,30.12,SW,229,11.7,11.7,94,0.00,CLR,SKC,0.00,WeatherDisplay:10.37,2013-05-05 11:18:00,
2013-05-05 06:23:00,41.4,39.8,30.12,WSW,245,11.7,11.7,94,0.00,CLR,SKC,0.00,WeatherDisplay:10.37,2013-05-05 11:23:00,
2013-05-05 06:28:00,41.4,39.8,30.13,SW,220,11.7,11.7,94,0.00,CLR,SKC,0.00,WeatherDisplay:10.37,2013-05-05 11:28:00,
2013-05-05 06:33:00,41.4,39.8,30.13,West,269,8.5,8.5,94,0.00,CLR,SKC,0.00,WeatherDisplay:10.37,2013-05-05 11:33:00,
2013-05-05 06:38:00,41.4,39.8,30.13,SW,236,9.5,9.5,94,0.00,CLR,SKC,0.00,WeatherDisplay:10.37,2013-05-05 11:38:00,
2013-05-05 06:47:00,41.4,39.8,30.13,SW,224,9.5,9.5,94,0.00,CLR,SKC,0.00,WeatherDisplay:10.37,2013-05-05 11:47:00,
2013-05-05 06:55:00,41.4,39.8,30.13,SSW,212,9.2,9.2,94,0.00,CLR,SKC,0.00,WeatherDisplay:10.37,2013-05-05 11:55:00,
2013-05-05 07:00:00,41.3,39.7,30.13,WSW,244,8.0,12.0,94,0.00,CLR,SKC,0.00,WeatherDisplay:10.37,2013-05-05 12:00:00,
2013-05-05 07:05:00,41.3,39.7,30.13,SW,231,9.5,9.5,94,0.00,CLR,SKC,0.00,WeatherDisplay:10.37,2013-05-05 12:05:00,
2013-05-05 07:10:00,41.3,39.7,30.13,WSW,243,8.0,14.0,94,0.00,CLR,SKC,0.00,WeatherDisplay:10.37,2013-05-05 12:10:00,
2013-05-05 07:15:00,41.3,39.7,30.13,SW,226,11.7,11.7,94,0.00,CLR,SKC,0.00,WeatherDisplay:10.37,2013-05-05 12:15:00,
2013-05-05 07:20:00,41.4,39.8,30.13,WSW,237,9.0,12.0,94,0.00,CLR,SKC,0.00,WeatherDisplay:10.37,2013-05-05 12:20:00,
2013-05-05 07:25:00,41.4,39.8,30.13,SW,221,10.6,10.6,94,0.00,CLR,SKC,0.00,WeatherDisplay:10.37,2013-05-05 12:25:00,
2013-05-05 07:30:00,41.4,39.8,30.13,WSW,248,13.8,13.8,94,0.00,CLR,SKC,0.00,WeatherDisplay:10.37,2013-05-05 12:30:00,
2013-05-05 07:35:00,41.4,39.8,30.13,SW,229,15.0,15.0,94,0.00,CLR,SKC,0.00,WeatherDisplay:10.37,2013-05-05 12:35:00,
2013-05-05 07:40:00,41.5,39.9,30.13,WSW,239,8.5,8.5,94,0.00,CLR,SKC,0.00,WeatherDisplay:10.37,2013-05-05 12:40:00,
2013-05-05 07:45:00,41.6,40.0,30.13,WSW,252,13.8,13.8,94,0.00,CLR,SKC,0.00,WeatherDisplay:10.37,2013-05-05 12:45:00,
2013-05-05 07:50:00,41.7,40.1,30.13,SW,236,6.9,6.9,94,0.00,CLR,SKC,0.00,WeatherDisplay:10.37,2013-05-05 12:50:00,
2013-05-05 07:55:00,41.7,39.8,30.13,SW,225,10.6,10.6,93,0.00,CLR,SKC,0.00,WeatherDisplay:10.37,2013-05-05 12:55:00,
2013-05-05 08:00:00,41.8,39.9,30.13,SW,228,15.0,15.0,93,0.00,CLR,SKC,0.00,WeatherDisplay:10.37,2013-05-05 13:00:00,
2013-05-05 08:05:00,41.9,40.0,30.14,WSW,255,7.4,7.4,93,0.00,CLR,SKC,0.00,WeatherDisplay:10.37,2013-05-05 13:05:00,
2013-05-05 08:10:00,42.0,40.1,30.14,SW,226,11.7,11.7,93,0.00,CLR,SKC,0.00,WeatherDisplay:10.37,2013-05-05 13:10:00,
2013-05-05 08:15:00,42.0,40.1,30.14,WSW,245,13.8,13.8,93,0.00,CLR,SKC,0.00,WeatherDisplay:10.37,2013-05-05 13:15:00,
2013-05-05 08:20:00,42.1,39.9,30.14,West,263,11.7,11.7,92,0.00,CLR,SKC,0.00,WeatherDisplay:10.37,2013-05-05 13:20:00,
2013-05-05 08:25:00,42.2,40.3,30.14,SW,231,9.5,9.5,93,0.00,CLR,SKC,0.00,WeatherDisplay:10.37,2013-05-05 13:25:00,
2013-05-05 08:30:00,42.2,40.0,30.14,SSW,200,12.7,12.7,92,0.00,CLR,SKC,0.00,WeatherDisplay:10.37,2013-05-05 13:30:00,
2013-05-05 08:35:00,42.3,40.1,30.14,SW,233,9.2,9.2,92,0.00,CLR,SKC,0.00,WeatherDisplay:10.37,2013-05-05 13:35:00,
2013-05-05 08:40:00,42.3,40.1,30.15,West,259,9.5,9.5,92,0.00,CLR,SKC,0.00,WeatherDisplay:10.37,2013-05-05 13:40:00,
2013-05-05 08:45:00,42.3,40.1,30.15,WSW,242,12.7,12.7,92,0.00,CLR,SKC,0.00,WeatherDisplay:10.37,2013-05-05 13:45:00,
2013-05-05 08:50:00,42.4,40.2,30.15,SW,230,10.6,10.6,92,0.00,CLR,SKC,0.00,WeatherDisplay:10.37,2013-05-05 13:50:00,
2013-05-05 08:55:00,42.4,40.2,30.15,West,277,11.7,11.7,92,0.00,CLR,SKC,0.00,WeatherDisplay:10.37,2013-05-05 13:55:00,
2013-05-05 09:00:00,42.5,40.3,30.15,SW,236,11.7,11.7,92,0.00,CLR,SKC,0.00,WeatherDisplay:10.37,2013-05-05 14:00:00,
2013-05-05 09:05:00,42.5,40.3,30.15,SW,216,11.5,11.5,92,0.00,CLR,SKC,0.00,WeatherDisplay:10.37,2013-05-05 14:05:00,
2013-05-05 09:10:00,42.5,40.1,30.15,WSW,245,13.8,13.8,91,0.00,CLR,SKC,0.00,WeatherDisplay:10.37,2013-05-05 14:10:00,
2013-05-05 09:15:00,42.5,40.1,30.15,SW,215,12.7,12.7,91,0.00,CLR,SKC,0.00,WeatherDisplay:10.37,2013-05-05 14:15:00,
2013-05-05 09:20:00,42.6,40.2,30.15,West,275,11.5,11.5,91,0.00,CLR,SKC,0.00,WeatherDisplay:10.37,2013-05-05 14:20:00,
2013-05-05 09:25:00,42.7,40.3,30.15,SW,235,12.7,12.7,91,0.00,CLR,SKC,0.00,WeatherDisplay:10.37,2013-05-05 14:25:00,
2013-05-05 09:30:00,42.8,40.4,30.16,SW,232,11.7,11.7,91,0.00,CLR,SKC,0.00,WeatherDisplay:10.37,2013-05-05 14:30:00,
2013-05-05 09:35:00,42.9,40.5,30.15,West,270,11.7,11.7,91,0.00,CLR,SKC,0.00,WeatherDisplay:10.37,2013-05-05 14:35:00,
2013-05-05 09:40:00,43.0,40.6,30.15,WNW,295,11.7,11.7,91,0.00,CLR,SKC,0.00,WeatherDisplay:10.37,2013-05-05 14:40:00,
2013-05-05 09:45:00,43.0,40.6,30.15,SSW,212,11.7,11.7,91,0.00,CLR,SKC,0.00,WeatherDisplay:10.37,2013-05-05 14:45:00,
2013-05-05 09:50:00,43.0,40.6,30.15,SW,219,9.5,9.5,91,0.00,CLR,SKC,0.00,WeatherDisplay:10.37,2013-05-05 14:50:00,
2013-05-05 09:55:00,43.2,40.8,30.15,SW,227,12.7,12.7,91,0.00,CLR,SKC,0.00,WeatherDisplay:10.37,2013-05-05 14:55:00,
2013-05-05 10:00:00,43.1,40.7,30.15,WSW,238,9.5,9.5,91,0.00,CLR,SKC,0.00,WeatherDisplay:10.37,2013-05-05 15:00:00,
2013-05-05 10:05:00,43.2,40.8,30.15,WSW,258,10.6,10.6,91,0.00,CLR,SKC,0.00,WeatherDisplay:10.37,2013-05-05 15:05:00,
2013-05-05 10:10:00,43.3,40.8,30.15,WSW,240,11.7,11.7,91,0.00,CLR,SKC,0.00,WeatherDisplay:10.37,2013-05-05 15:10:00,
2013-05-05 10:15:00,43.3,40.8,30.15,SW,231,11.7,11.7,91,0.00,CLR,SKC,0.00,WeatherDisplay:10.37,2013-05-05 15:15:00,
2013-05-05 10:20:00,43.4,40.9,30.15,WSW,241,10.6,10.6,91,0.00,CLR,SKC,0.00,WeatherDisplay:10.37,2013-05-05 15:20:00,
2013-05-05 10:25:00,43.4,40.9,30.15,WSW,243,12.7,12.7,91,0.00,CLR,SKC,0.00,WeatherDisplay:10.37,2013-05-05 15:25:00,
2013-05-05 10:30:00,43.4,40.9,30.16,WSW,240,12.7,12.7,91,0.00,CLR,SKC,0.00,WeatherDisplay:10.37,2013-05-05 15:30:00,
2013-05-05 10:35:00,43.5,41.0,30.16,WSW,253,10.4,10.4,91,0.00,CLR,SKC,0.00,WeatherDisplay:10.37,2013-05-05 15:35:00,
2013-05-05 10:40:00,43.7,41.2,30.16,SW,236,10.6,10.6,91,0.00,CLR,SKC,0.00,WeatherDisplay:10.37,2013-05-05 15:40:00,
2013-05-05 10:45:00,43.6,41.1,30.16,WSW,248,11.7,11.7,91,0.00,CLR,SKC,0.00,WeatherDisplay:10.37,2013-05-05 15:45:00,
2013-05-05 10:50:00,43.6,41.1,30.16,WSW,243,10.6,10.6,91,0.00,CLR,SKC,0.00,WeatherDisplay:10.37,2013-05-05 15:50:00,
2013-05-05 10:55:00,43.7,41.2,30.16,WSW,255,11.7,11.7,91,0.00,CLR,SKC,0.00,WeatherDisplay:10.37,2013-05-05 15:55:00,
2013-05-05 11:00:00,43.7,41.2,30.16,SW,229,12.7,12.7,91,0.00,CLR,SKC,0.00,WeatherDisplay:10.37,2013-05-05 16:00:00,
2013-05-05 11:05:00,43.9,41.4,30.16,SW,235,10.6,10.6,91,0.00,CLR,SKC,0.00,WeatherDisplay:10.37,2013-05-05 16:05:00,
2013-05-05 11:10:00,44.0,41.5,30.16,SW,229,10.6,10.6,91,0.00,CLR,SKC,0.00,WeatherDisplay:10.37,2013-05-05 16:10:00,
2013-05-05 11:15:00,44.3,41.8,30.16,WSW,242,8.5,8.5,91,0.00,CLR,SKC,0.00,WeatherDisplay:10.37,2013-05-05 16:15:00,
2013-05-05 11:20:00,44.4,41.9,30.16,SW,224,10.6,10.6,91,0.00,CLR,SKC,0.00,WeatherDisplay:10.37,2013-05-05 16:20:00,
2013-05-05 11:25:00,44.5,42.0,30.16,SW,222,9.5,9.5,91,0.00,CLR,SKC,0.00,WeatherDisplay:10.37,2013-05-05 16:25:00,
2013-05-05 11:30:00,44.8,42.3,30.16,SW,229,9.5,9.5,91,0.00,CLR,SKC,0.00,WeatherDisplay:10.37,2013-05-05 16:30:00,
2013-05-05 11:35:00,45.0,42.5,30.16,West,266,9.5,9.5,91,0.00,CLR,SKC,0.00,WeatherDisplay:10.37,2013-05-05 16:35:00,
2013-05-05 11:40:00,45.2,42.4,30.16,WSW,247,8.5,8.5,90,0.00,CLR,SKC,0.00,WeatherDisplay:10.37,2013-05-05 16:40:00,
2013-05-05 11:45:00,45.4,42.6,30.16,WNW,291,10.4,10.4,90,0.00,CLR,SKC,0.00,WeatherDisplay:10.37,2013-05-05 16:45:00,
2013-05-05 11:50:00,45.5,42.7,30.16,WSW,244,9.2,9.2,90,0.00,CLR,SKC,0.00,WeatherDisplay:10.37,2013-05-05 16:50:00,
2013-05-05 11:55:00,45.5,42.7,30.16,West,262,7.4,7.4,90,0.00,CLR,SKC,0.00,WeatherDisplay:10.37,2013-05-05 16:55:00,
2013-05-05 12:00:00,45.7,42.9,30.16,West,274,9.2,9.2,90,0.00,CLR,SKC,0.00,WeatherDisplay:10.37,2013-05-05 17:00:00,
2013-05-05 12:05:00,46.0,42.9,30.16,WSW,243,8.5,8.5,89,0.00,CLR,SKC,0.00,WeatherDisplay:10.37,2013-05-05 17:05:00,
2013-05-05 12:10:00,46.2,43.1,30.16,NW,317,9.5,9.5,89,0.00,CLR,SKC,0.00,WeatherDisplay:10.37,2013-05-05 17:10:00,
2013-05-05 12:15:00,46.3,43.2,30.16,SW,235,7.4,7.4,89,0.00,CLR,SKC,0.00,WeatherDisplay:10.37,2013-05-05 17:15:00,
2013-05-05 12:20:00,46.3,42.9,30.15,WSW,239,13.8,13.8,88,0.00,CLR,SKC,0.00,WeatherDisplay:10.37,2013-05-05 17:20:00,
2013-05-05 12:25:00,46.6,43.5,30.15,WSW,254,8.5,8.5,89,0.00,CLR,SKC,0.00,WeatherDisplay:10.37,2013-05-05 17:25:00,
2013-05-05 12:30:00,46.8,43.1,30.15,WNW,289,10.6,10.6,87,0.00,CLR,SKC,0.00,WeatherDisplay:10.37,2013-05-05 17:30:00,
2013-05-05 12:35:00,47.1,43.4,30.15,WSW,252,11.7,11.7,87,0.00,CLR,SKC,0.00,WeatherDisplay:10.37,2013-05-05 17:35:00,
2013-05-05 12:40:00,47.3,43.6,30.15,WSW,239,10.4,10.4,87,0.00,CLR,SKC,0.00,WeatherDisplay:10.37,2013-05-05 17:40:00,
2013-05-05 12:45:00,47.5,43.5,30.14,SW,223,12.7,12.7,86,0.00,CLR,SKC,0.00,WeatherDisplay:10.37,2013-05-05 17:45:00,
2013-05-05 12:50:00,47.6,43.6,30.14,WSW,239,10.6,10.6,86,0.00,CLR,SKC,0.00,WeatherDisplay:10.37,2013-05-05 17:50:00,
2013-05-05 12:56:00,48.1,44.4,30.14,WNW,285,11.7,11.7,87,0.00,CLR,SKC,0.00,WeatherDisplay:10.37,2013-05-05 17:56:00,
2013-05-05 13:01:00,48.1,44.1,30.14,WSW,243,11.7,11.7,86,0.00,CLR,SKC,0.00,WeatherDisplay:10.37,2013-05-05 18:01:00,
2013-05-05 13:06:00,48.1,44.1,30.14,WSW,244,9.5,9.5,86,0.00,CLR,SKC,0.00,WeatherDisplay:10.37,2013-05-05 18:06:00,
2013-05-05 13:11:00,48.1,44.1,30.14,WNW,289,12.7,12.7,86,0.00,CLR,SKC,0.00,WeatherDisplay:10.37,2013-05-05 18:11:00,
2013-05-05 13:16:00,48.0,44.0,30.14,SW,231,6.9,6.9,86,0.00,CLR,SKC,0.00,WeatherDisplay:10.37,2013-05-05 18:16:00,
2013-05-05 13:21:00,48.0,44.0,30.14,WSW,257,10.6,10.6,86,0.00,CLR,SKC,0.00,WeatherDisplay:10.37,2013-05-05 18:21:00,
2013-05-05 13:26:00,48.3,44.6,30.14,West,264,10.6,10.6,87,0.00,CLR,SKC,0.00,WeatherDisplay:10.37,2013-05-05 18:26:00,
2013-05-05 13:31:00,48.7,44.4,30.14,WSW,252,9.5,9.5,85,0.00,CLR,SKC,0.00,WeatherDisplay:10.37,2013-05-05 18:31:00,
2013-05-05 13:36:00,49.1,44.8,30.13,West,281,9.5,9.5,85,0.00,CLR,SKC,0.00,WeatherDisplay:10.37,2013-05-05 18:36:00,
2013-05-05 13:41:00,49.3,44.7,30.14,SW,216,12.7,12.7,84,0.00,CLR,SKC,0.00,WeatherDisplay:10.37,2013-05-05 18:41:00,
2013-05-05 13:46:00,49.4,45.1,30.14,West,281,10.6,10.6,85,0.00,CLR,SKC,0.00,WeatherDisplay:10.37,2013-05-05 18:46:00,
2013-05-05 13:51:00,49.4,45.1,30.14,WSW,241,8.5,8.5,85,0.00,CLR,SKC,0.00,WeatherDisplay:10.37,2013-05-05 18:51:00,
2013-05-05 13:56:00,49.5,45.2,30.14,SSW,205,8.5,8.5,85,0.00,CLR,SKC,0.00,WeatherDisplay:10.37,2013-05-05 18:56:00,
2013-05-05 14:01:00,49.6,45.0,30.14,West,276,8.5,8.5,84,0.00,CLR,SKC,0.00,WeatherDisplay:10.37,2013-05-05 19:01:00,
2013-05-05 14:06:00,49.9,45.3,30.14,WSW,256,9.5,9.5,84,0.00,CLR,SKC,0.00,WeatherDisplay:10.37,2013-05-05 19:06:00,
2013-05-05 14:11:00,50.4,46.1,30.13,WNW,297,10.6,10.6,85,0.00,CLR,SKC,0.00,WeatherDisplay:10.37,2013-05-05 19:11:00,
2013-05-05 14:16:00,50.6,45.6,30.13,WNW,285,8.5,8.5,83,0.00,CLR,SKC,0.00,WeatherDisplay:10.37,2013-05-05 19:16:00,
2013-05-05 14:21:00,50.6,45.6,30.13,WNW,283,9.2,9.2,83,0.00,CLR,SKC,0.00,WeatherDisplay:10.37,2013-05-05 19:21:00,
2013-05-05 14:26:00,51.0,46.3,30.13,WSW,247,11.7,11.7,84,0.00,CLR,SKC,0.00,WeatherDisplay:10.37,2013-05-05 19:26:00,
2013-05-05 14:31:00,51.1,45.8,30.13,WSW,248,11.7,11.7,82,0.00,CLR,SKC,0.00,WeatherDisplay:10.37,2013-05-05 19:31:00,
2013-05-05 14:36:00,51.2,46.2,30.13,WSW,238,10.6,10.6,83,0.00,CLR,SKC,0.00,WeatherDisplay:10.37,2013-05-05 19:36:00,
2013-05-05 14:41:00,51.0,45.7,30.13,WSW,246,10.6,10.6,82,0.00,CLR,SKC,0.00,WeatherDisplay:10.37,2013-05-05 19:41:00,
2013-05-05 14:46:00,51.0,45.7,30.13,WSW,250,11.7,11.7,82,0.00,CLR,SKC,0.00,WeatherDisplay:10.37,2013-05-05 19:46:00,
2013-05-05 14:51:00,51.0,45.7,30.13,WNW,282,11.7,11.7,82,0.00,CLR,SKC,0.00,WeatherDisplay:10.37,2013-05-05 19:51:00,
2013-05-05 14:56:00,50.9,45.6,30.13,WSW,247,9.5,9.5,82,0.00,CLR,SKC,0.00,WeatherDisplay:10.37,2013-05-05 19:56:00,
2013-05-05 15:01:00,51.0,46.0,30.13,SW,232,8.5,8.5,83,0.00,CLR,SKC,0.00,WeatherDisplay:10.37,2013-05-05 20:01:00,
2013-05-05 15:06:00,51.1,45.8,30.13,SW,228,8.5,8.5,82,0.00,CLR,SKC,0.00,WeatherDisplay:10.37,2013-05-05 20:06:00,
2013-05-05 15:11:00,51.1,45.8,30.12,SW,231,9.5,9.5,82,0.00,CLR,SKC,0.00,WeatherDisplay:10.37,2013-05-05 20:11:00,
2013-05-05 15:16:00,51.3,46.0,30.12,SW,229,7.4,7.4,82,0.00,CLR,SKC,0.00,WeatherDisplay:10.37,2013-05-05 20:16:00,
2013-05-05 15:21:00,51.4,46.1,30.12,West,259,10.4,10.4,82,0.00,CLR,SKC,0.00,WeatherDisplay:10.37,2013-05-05 20:21:00,
2013-05-05 15:26:00,51.5,46.2,30.12,WSW,240,12.7,12.7,82,0.00,CLR,SKC,0.00,WeatherDisplay:10.37,2013-05-05 20:26:00,
2013-05-05 15:31:00,51.6,46.3,30.11,SW,236,11.7,11.7,82,0.00,CLR,SKC,0.00,WeatherDisplay:10.37,2013-05-05 20:31:00,
2013-05-05 15:36:00,51.7,46.1,30.11,WSW,246,12.7,12.7,81,0.00,CLR,SKC,0.00,WeatherDisplay:10.37,2013-05-05 20:36:00,
2013-05-05 15:41:00,52.1,46.8,30.11,WSW,237,10.6,10.6,82,0.00,CLR,SKC,0.00,WeatherDisplay:10.37,2013-05-05 20:41:00,
2013-05-05 15:46:00,52.2,46.5,30.11,SSW,210,11.7,11.7,81,0.00,CLR,SKC,0.00,WeatherDisplay:10.37,2013-05-05 20:46:00,
2013-05-05 15:51:00,52.3,47.0,30.11,SSW,212,10.4,10.4,82,0.00,CLR,SKC,0.00,WeatherDisplay:10.37,2013-05-05 20:51:00,
2013-05-05 15:56:00,52.3,46.6,30.11,WSW,250,10.6,10.6,81,0.00,CLR,SKC,0.00,WeatherDisplay:10.37,2013-05-05 20:56:00,
2013-05-05 16:01:00,52.7,47.0,30.10,WNW,290,12.7,12.7,81,0.00,CLR,SKC,0.00,WeatherDisplay:10.37,2013-05-05 21:01:00,
2013-05-05 16:06:00,52.8,46.8,30.10,SW,231,11.5,11.5,80,0.00,CLR,SKC,0.00,WeatherDisplay:10.37,2013-05-05 21:06:00,
2013-05-05 16:11:00,53.2,47.5,30.10,West,274,10.6,10.6,81,0.00,CLR,SKC,0.00,WeatherDisplay:10.37,2013-05-05 21:11:00,
2013-05-05 16:16:00,53.9,47.9,30.10,WNW,293,10.6,10.6,80,0.00,CLR,SKC,0.00,WeatherDisplay:10.37,2013-05-05 21:16:00,
2013-05-05 16:21:00,53.9,47.5,30.10,WSW,241,11.7,11.7,79,0.00,CLR,SKC,0.00,WeatherDisplay:10.37,2013-05-05 21:21:00,
2013-05-05 16:26:00,54.1,47.7,30.09,SW,226,11.7,11.7,79,0.00,CLR,SKC,0.00,WeatherDisplay:10.37,2013-05-05 21:26:00,
2013-05-05 16:31:00,54.0,47.3,30.10,WSW,239,8.5,8.5,78,0.00,CLR,SKC,0.00,WeatherDisplay:10.37,2013-05-05 21:31:00,
2013-05-05 16:36:00,54.0,47.6,30.10,West,259,13.8,13.8,79,0.00,CLR,SKC,0.00,WeatherDisplay:10.37,2013-05-05 21:36:00,
2013-05-05 16:41:00,53.9,47.5,30.10,WSW,255,9.5,9.5,79,0.00,CLR,SKC,0.00,WeatherDisplay:10.37,2013-05-05 21:41:00,
2013-05-05 16:46:00,53.7,47.3,30.10,SW,233,8.5,8.5,79,0.00,CLR,SKC,0.00,WeatherDisplay:10.37,2013-05-05 21:46:00,
2013-05-05 16:51:00,53.8,47.4,30.10,SW,215,9.5,9.5,79,0.00,CLR,SKC,0.00,WeatherDisplay:10.37,2013-05-05 21:51:00,
2013-05-05 16:56:00,53.8,47.8,30.10,West,260,8.1,8.1,80,0.00,CLR,SKC,0.00,WeatherDisplay:10.37,2013-05-05 21:56:00,
2013-05-05 17:01:00,53.8,47.4,30.10,SW,235,10.4,10.4,79,0.00,CLR,SKC,0.00,WeatherDisplay:10.37,2013-05-05 22:01:00,
2013-05-05 17:06:00,53.7,47.3,30.09,SW,228,10.6,10.6,79,0.00,CLR,SKC,0.00,WeatherDisplay:10.37,2013-05-05 22:06:00,
2013-05-05 17:11:00,53.9,47.9,30.09,SW,223,8.5,8.5,80,0.00,CLR,SKC,0.00,WeatherDisplay:10.37,2013-05-05 22:11:00,
2013-05-05 17:16:00,53.9,47.9,30.09,SW,225,10.6,10.6,80,0.00,CLR,SKC,0.00,WeatherDisplay:10.37,2013-05-05 22:16:00,
2013-05-05 17:21:00,54.0,48.0,30.09,SW,226,5.8,5.8,80,0.00,CLR,SKC,0.00,WeatherDisplay:10.37,2013-05-05 22:21:00,
2013-05-05 17:26:00,54.0,47.6,30.09,WSW,249,11.5,11.5,79,0.00,CLR,SKC,0.00,WeatherDisplay:10.37,2013-05-05 22:26:00,
2013-05-05 17:31:00,54.0,47.6,30.09,SW,226,9.5,9.5,79,0.00,CLR,SKC,0.00,WeatherDisplay:10.37,2013-05-05 22:31:00,
2013-05-05 17:36:00,54.1,47.7,30.09,SW,217,9.5,9.5,79,0.00,CLR,SKC,0.00,WeatherDisplay:10.37,2013-05-05 22:36:00,
2013-05-05 17:41:00,53.8,47.4,30.09,SW,225,9.5,9.5,79,0.00,CLR,SKC,0.00,WeatherDisplay:10.37,2013-05-05 22:41:00,
2013-05-05 17:46:00,53.3,47.0,30.09,SW,221,12.7,12.7,79,0.00,CLR,SKC,0.00,WeatherDisplay:10.37,2013-05-05 22:46:00,
2013-05-05 17:51:00,53.2,47.2,30.09,SW,233,12.7,12.7,80,0.00,CLR,SKC,0.00,WeatherDisplay:10.37,2013-05-05 22:51:00,
2013-05-05 17:56:00,53.3,47.3,30.09,WSW,243,13.8,13.8,80,0.00,CLR,SKC,0.00,WeatherDisplay:10.37,2013-05-05 22:56:00,
2013-05-05 18:01:00,53.4,47.4,30.09,SW,224,10.4,10.4,80,0.00,CLR,SKC,0.00,WeatherDisplay:10.37,2013-05-05 23:01:00,
2013-05-05 18:06:00,53.7,47.7,30.09,WSW,238,10.6,10.6,80,0.00,CLR,SKC,0.00,WeatherDisplay:10.37,2013-05-05 23:06:00,
2013-05-05 18:11:00,53.9,47.9,30.09,WSW,252,12.7,12.7,80,0.00,CLR,SKC,0.00,WeatherDisplay:10.37,2013-05-05 23:11:00,
2013-05-05 18:16:00,54.0,48.0,30.09,WNW,288,8.1,8.1,80,0.00,CLR,SKC,0.00,WeatherDisplay:10.37,2013-05-05 23:16:00,
2013-05-05 18:21:00,54.1,48.1,30.09,WSW,247,10.6,10.6,80,0.00,CLR,SKC,0.00,WeatherDisplay:10.37,2013-05-05 23:21:00,
2013-05-05 18:26:00,54.1,48.1,30.09,WSW,244,9.5,9.5,80,0.00,CLR,SKC,0.00,WeatherDisplay:10.37,2013-05-05 23:26:00,
2013-05-05 18:31:00,54.2,48.2,30.09,WNW,284,11.7,11.7,80,0.00,CLR,SKC,0.00,WeatherDisplay:10.37,2013-05-05 23:31:00,
2013-05-05 18:36:00,54.1,48.1,30.09,WSW,255,8.5,8.5,80,0.00,CLR,SKC,0.00,WeatherDisplay:10.37,2013-05-05 23:36:00,
2013-05-05 18:41:00,54.0,48.0,30.09,SW,226,7.4,7.4,80,0.00,CLR,SKC,0.00,WeatherDisplay:10.37,2013-05-05 23:41:00,
2013-05-05 18:47:00,53.9,47.9,30.09,SW,226,7.4,7.4,80,0.00,CLR,SKC,0.00,WeatherDisplay:10.37,2013-05-05 23:47:00,
2013-05-05 18:52:00,54.0,48.0,30.09,NW,323,9.5,9.5,80,0.00,CLR,SKC,0.00,WeatherDisplay:10.37,2013-05-05 23:52:00,
2013-05-05 18:57:00,53.9,47.9,30.09,West,262,9.5,9.5,80,0.00,CLR,SKC,0.00,WeatherDisplay:10.37,2013-05-05 23:57:00,
2013-05-05 19:02:00,54.0,48.0,30.09,WNW,283,11.7,11.7,80,0.00,CLR,SKC,0.00,WeatherDisplay:10.37,2013-05-06 00:02:00,
2013-05-05 19:07:00,54.0,48.0,30.09,WNW,290,8.5,8.5,80,0.00,CLR,SKC,0.00,WeatherDisplay:10.37,2013-05-06 00:07:00,
2013-05-05 19:12:00,53.9,47.9,30.09,WSW,250,9.5,9.5,80,0.00,CLR,SKC,0.00,WeatherDisplay:10.37,2013-05-06 00:12:00,
2013-05-05 19:17:00,53.8,47.8,30.09,SW,217,7.4,7.4,80,0.00,CLR,SKC,0.00,WeatherDisplay:10.37,2013-05-06 00:17:00,
2013-05-05 19:22:00,53.7,47.7,30.09,WSW,252,8.5,8.5,80,0.00,CLR,SKC,0.00,WeatherDisplay:10.37,2013-05-06 00:22:00,
2013-05-05 19:27:00,53.7,48.0,30.09,West,270,8.1,8.1,81,0.00,CLR,SKC,0.00,WeatherDisplay:10.37,2013-05-06 00:27:00,
2013-05-05 19:32:00,53.7,48.0,30.09,West,268,9.5,9.5,81,0.00,CLR,SKC,0.00,WeatherDisplay:10.37,2013-05-06 00:32:00,
2013-05-05 19:37:00,53.6,47.9,30.09,West,270,5.8,5.8,81,0.00,CLR,SKC,0.00,WeatherDisplay:10.37,2013-05-06 00:37:00,
2013-05-05 19:42:00,53.5,47.8,30.09,SW,236,6.4,6.4,81,0.00,CLR,SKC,0.00,WeatherDisplay:10.37,2013-05-06 00:42:00,
2013-05-05 19:47:00,53.5,47.8,30.09,West,274,9.5,9.5,81,0.00,CLR,SKC,0.00,WeatherDisplay:10.37,2013-05-06 00:47:00,
2013-05-05 19:52:00,53.3,47.9,30.08,WNW,283,6.4,6.4,82,0.00,CLR,SKC,0.00,WeatherDisplay:10.37,2013-05-06 00:52:00,
2013-05-05 19:57:00,53.2,47.8,30.08,West,276,5.8,5.8,82,0.00,CLR,SKC,0.00,WeatherDisplay:10.37,2013-05-06 00:57:00,
2013-05-05 20:02:00,53.0,47.7,30.08,WNW,291,3.5,3.5,82,0.00,CLR,SKC,0.00,WeatherDisplay:10.37,2013-05-06 01:02:00,
2013-05-05 20:07:00,52.9,47.9,30.08,WNW,289,7.4,7.4,83,0.00,CLR,SKC,0.00,WeatherDisplay:10.37,2013-05-06 01:07:00,
2013-05-05 20:12:00,52.8,47.8,30.08,West,281,5.8,5.8,83,0.00,CLR,SKC,0.00,WeatherDisplay:10.37,2013-05-06 01:12:00,
2013-05-05 20:17:00,52.6,47.6,30.08,WNW,285,3.5,3.5,83,0.00,CLR,SKC,0.00,WeatherDisplay:10.37,2013-05-06 01:17:00,
2013-05-05 20:22:00,52.4,47.7,30.08,West,276,2.3,0.0,84,0.00,CLR,SKC,0.00,WeatherDisplay:10.37,2013-05-06 01:22:00,
2013-05-05 20:27:00,52.2,47.5,30.08,WSW,245,3.2,3.2,84,0.00,CLR,SKC,0.00,WeatherDisplay:10.37,2013-05-06 01:27:00,
2013-05-05 20:32:00,52.1,47.4,30.09,West,274,2.3,2.3,84,0.00,CLR,SKC,0.00,WeatherDisplay:10.37,2013-05-06 01:32:00,
2013-05-05 20:37:00,52.1,47.7,30.09,WNW,286,0.0,0.0,85,0.00,CLR,SKC,0.00,WeatherDisplay:10.37,2013-05-06 01:37:00,
2013-05-05 20:42:00,52.1,47.7,30.09,WNW,292,2.3,2.3,85,0.00,CLR,SKC,0.00,WeatherDisplay:10.37,2013-05-06 01:42:00,
2013-05-05 20:47:00,52.0,47.6,30.09,WNW,293,2.1,2.1,85,0.00,CLR,SKC,0.00,WeatherDisplay:10.37,2013-05-06 01:47:00,
2013-05-05 20:52:00,52.0,47.6,30.09,WNW,283,2.3,2.3,85,0.00,CLR,SKC,0.00,WeatherDisplay:10.37,2013-05-06 01:52:00,
2013-05-05 20:57:00,52.0,47.6,30.09,WNW,288,0.0,0.0,85,0.00,CLR,SKC,0.00,WeatherDisplay:10.37,2013-05-06 01:57:00,
2013-05-05 21:02:00,51.8,47.4,30.09,WNW,288,0.0,0.0,85,0.00,CLR,SKC,0.00,WeatherDisplay:10.37,2013-05-06 02:02:00,
2013-05-05 21:07:00,51.5,47.5,30.10,WNW,285,0.0,0.0,86,0.00,CLR,SKC,0.00,WeatherDisplay:10.37,2013-05-06 02:07:00,
2013-05-05 21:12:00,51.4,47.4,30.10,WSW,256,3.5,3.5,86,0.00,CLR,SKC,0.00,WeatherDisplay:10.37,2013-05-06 02:12:00,
2013-05-05 21:17:00,51.4,47.4,30.10,WNW,291,5.8,5.8,86,0.00,CLR,SKC,0.00,WeatherDisplay:10.37,2013-05-06 02:17:00,
2013-05-05 21:22:00,51.7,47.6,30.10,WNW,289,6.9,6.9,86,0.00,CLR,SKC,0.00,WeatherDisplay:10.37,2013-05-06 02:22:00,
2013-05-05 21:27:00,51.7,47.6,30.10,WNW,287,3.5,3.5,86,0.00,CLR,SKC,0.00,WeatherDisplay:10.37,2013-05-06 02:27:00,
2013-05-05 21:32:00,51.7,47.6,30.10,WNW,285,5.8,5.8,86,0.00,CLR,SKC,0.00,WeatherDisplay:10.37,2013-05-06 02:32:00,
2013-05-05 21:37:00,51.8,47.7,30.10,WNW,295,4.6,4.6,86,0.00,CLR,SKC,0.00,WeatherDisplay:10.37,2013-05-06 02:37:00,
2013-05-05 21:42:00,51.8,47.7,30.10,WNW,282,4.6,4.6,86,0.00,CLR,SKC,0.00,WeatherDisplay:10.37,2013-05-06 02:42:00,
2013-05-05 21:47:00,51.8,47.7,30.10,West,274,3.5,3.5,86,0.00,CLR,SKC,0.00,WeatherDisplay:10.37,2013-05-06 02:47:00,
2013-05-05 21:52:00,51.8,47.7,30.11,West,276,2.3,2.3,86,0.00,CLR,SKC,0.00,WeatherDisplay:10.37,2013-05-06 02:52:00,
2013-05-05 21:57:00,51.9,47.8,30.11,WNW,286,4.6,4.6,86,0.00,CLR,SKC,0.00,WeatherDisplay:10.37,2013-05-06 02:57:00,
2013-05-05 22:02:00,51.9,47.8,30.11,NW,316,3.5,3.5,86,0.00,CLR,SKC,0.00,WeatherDisplay:10.37,2013-05-06 03:02:00,
2013-05-05 22:07:00,52.0,47.9,30.11,WSW,251,3.5,3.5,86,0.00,CLR,SKC,0.00,WeatherDisplay:10.37,2013-05-06 03:07:00,
2013-05-05 22:12:00,52.0,47.9,30.11,WNW,294,2.3,2.3,86,0.00,CLR,SKC,0.00,WeatherDisplay:10.37,2013-05-06 03:12:00,
2013-05-05 22:17:00,51.9,48.2,30.11,WNW,283,1.2,1.2,87,0.00,CLR,SKC,0.00,WeatherDisplay:10.37,2013-05-06 03:17:00,
2013-05-05 22:22:00,51.9,48.2,30.11,WNW,283,1.2,1.2,87,0.00,CLR,SKC,0.00,WeatherDisplay:10.37,2013-05-06 03:22:00,
2013-05-05 22:27:00,51.8,48.1,30.11,WSW,257,1.2,1.2,87,0.00,CLR,SKC,0.00,WeatherDisplay:10.37,2013-05-06 03:27:00,
2013-05-05 22:32:00,51.7,48.0,30.11,West,281,2.3,2.3,87,0.00,CLR,SKC,0.00,WeatherDisplay:10.37,2013-05-06 03:32:00,
2013-05-05 22:37:00,51.6,47.9,30.11,West,264,2.1,2.1,87,0.00,CLR,SKC,0.00,WeatherDisplay:10.37,2013-05-06 03:37:00,
2013-05-05 22:42:00,51.6,47.9,30.11,WNW,289,2.3,2.3,87,0.00,CLR,SKC,0.00,WeatherDisplay:10.37,2013-05-06 03:42:00,
2013-05-05 22:47:00,51.5,48.1,30.11,West,271,2.1,2.1,88,0.00,CLR,SKC,0.00,WeatherDisplay:10.37,2013-05-06 03:47:00,
2013-05-05 22:52:00,51.4,48.0,30.11,West,278,1.2,1.2,88,0.00,CLR,SKC,0.00,WeatherDisplay:10.37,2013-05-06 03:52:00,
2013-05-05 22:57:00,51.4,48.0,30.11,West,271,2.3,2.3,88,0.00,CLR,SKC,0.00,WeatherDisplay:10.37,2013-05-06 03:57:00,
2013-05-05 23:01:00,51.4,48.0,30.11,WSW,245,2.3,2.3,88,0.00,CLR,SKC,0.00,WeatherDisplay:10.37,2013-05-06 04:01:00,
2013-05-05 23:06:00,51.4,48.0,30.11,WSW,255,2.3,2.3,88,0.00,CLR,SKC,0.00,WeatherDisplay:10.37,2013-05-06 04:06:00,
2013-05-05 23:11:00,51.4,48.0,30.11,West,262,4.6,4.6,88,0.00,CLR,SKC,0.00,WeatherDisplay:10.37,2013-05-06 04:11:00,
2013-05-05 23:16:00,51.5,47.8,30.11,WSW,247,7.4,7.4,87,0.00,CLR,SKC,0.00,WeatherDisplay:10.37,2013-05-06 04:16:00,
2013-05-05 23:21:00,51.6,47.9,30.11,WSW,245,4.6,4.6,87,0.00,CLR,SKC,0.00,WeatherDisplay:10.37,2013-05-06 04:21:00,
2013-05-05 23:26:00,51.6,47.9,30.11,WSW,254,5.3,5.3,87,0.00,CLR,SKC,0.00,WeatherDisplay:10.37,2013-05-06 04:26:00,
2013-05-05 23:31:00,51.7,48.0,30.11,West,261,8.5,8.5,87,0.00,CLR,SKC,0.00,WeatherDisplay:10.37,2013-05-06 04:31:00,
2013-05-05 23:36:00,51.7,48.0,30.11,West,269,9.2,9.2,87,0.00,CLR,SKC,0.00,WeatherDisplay:10.37,2013-05-06 04:36:00,
2013-05-05 23:41:00,51.8,48.1,30.10,WSW,239,6.9,6.9,87,0.00,CLR,SKC,0.00,WeatherDisplay:10.37,2013-05-06 04:41:00,
2013-05-05 23:46:00,51.7,48.0,30.10,SW,234,5.8,5.8,87,0.00,CLR,SKC,0.00,WeatherDisplay:10.37,2013-05-06 04:46:00,
2013-05-05 23:51:00,51.6,47.9,30.10,West,278,7.4,7.4,87,0.00,CLR,SKC,0.00,WeatherDisplay:10.37,2013-05-06 04:51:00,
2013-05-05 23:56:00,51.6,47.9,30.10,SW,236,5.8,5.8,87,0.00,CLR,SKC,0.00,WeatherDisplay:10.37,2013-05-06 04:56:00,